World > North America > United States > Missouri

Fort Osage, Missouri Regional Weather

Lat: 39.16N, Lon: 94.19W
Wx Zone: MOZ037Web Search
Fort Osage Weather Warning NWS WEATHER ALERT FOR THE FORT OSAGE, MO AREA - Issued: 457 AM CDT Wed Apr 14 2021 Fort Osage Weather Warning  

If you are on your PC, you can easily pass this page to your phone by scanning the QR Code near the bottom with your camera.

Feedback


°F Click to change Fort Osage hourly weather to Imperial units.Click to change Fort Osage hourly weather to Metric units. °C
Fort Osage Weather Map
UTC Time: 4/14/2021, 13:23
Your Time:

Fort Osage, MO Regional Weather

Expires:202104141400;;539755
ASUS43 KEAX 141315
RWREAX

WEATHER ROUNDUP FOR EASTERN KANSAS AND NORTHWEST MISSOURI
NATIONAL WEATHER SERVICE KANSAS CITY/PLEASANT HILL MO
800 AM CDT WED APR 14 2021


KSZ040-057-103>105-MOZ028-029-037-043-141400-
...KANSAS CITY METROPOLITAN AREA...
  
CITY           SKY/WX    TMP DP  RH WIND       PRES   REMARKS
K.C. INTL      SUNNY     42  28  57 NE9       30.27R                  
K.C. DOWNTOWN  SUNNY     42  26  53 NE7       30.28R                  
LEES SUMMIT    SUNNY     42  30  62 N9        30.27R                  
OLATHE - IXD   SUNNY     42  29  59 N9        30.27R                  
OLATHE - OJC   SUNNY     44  26  49 NE12      30.26R                  
LAWRENCE       SUNNY     43  28  55 NE6       30.29R                  

$$
 

SKY/WX - Weather  TMP - Temperature  DP - Dew Point  RH - Relative Humidity
WIND - Wind Direction/Speed PRES - Barometric Pressure VSB - Visibility
WCI - Wind Chill Index E13G22 Wind - East Wind 13 mph/Gusts of 22 mph